TIANMU-1 05

Last updated on Fri Sep 11 2026 00:02:39 GMT+0000 (Coordinated Universal Time)

1 55975U 23039C 26253.59841748 .00012287 00000+0 22551-3 0 9999 2 55975 97.5243 70.6676 0003235 143.6530 216.4941 15.49411956194039
UTC large
Height (km)
Speed (km/s)
/
Latitude / Longitude
Inclination (degrees)
Orbital Period (minutes)
Azimuth
Elevation
Range (km)
Doppler Factor

Next 0 passes for location: London (51.5072 / 0.1276)

No passes found over London.
TIANMU-1 05